This is the latest recevied weather packets stored in our database for station/object SQ6ELQ-11. If no packets are shown the sender has not sent any weather packets the latest 10 day(s).
| Time | Temp. | Humidity | Pressure | Rain* | Wind** | Luminosity | Snow |
|---|---|---|---|---|---|---|---|
| 1777699560 | 5.56° C | 63% | 1025.1 hPa | 0 mm | - | - | - |
| 1777698486 | 4.44° C | 63% | 1025 hPa | 0 mm | - | - | - |
| 1777697362 | 2.78° C | 63% | 1025.1 hPa | 0 mm | - | - | - |
| 1777696301 | 2.22° C | 69% | 1025.1 hPa | 0 mm | - | - | - |
| 1777695232 | 1.67° C | 67% | 1025.1 hPa | 0 mm | - | - | - |
| 1777694132 | 1.67° C | 68% | 1025 hPa | 0 mm | - | - | - |
| 1777692989 | 1.67° C | 67% | 1025.1 hPa | 0 mm | - | - | - |
| 1777691832 | 1.67° C | 68% | 1025.2 hPa | 0 mm | - | - | - |
| 1777690763 | 1.67° C | 67% | 1025.2 hPa | 0 mm | - | - | - |
| 1777689601 | 1.67° C | 67% | 1025.3 hPa | 0 mm | - | - | - |
| 1777688546 | 1.67° C | 67% | 1025.4 hPa | 0 mm | - | - | - |
| 1777687501 | 1.67° C | 67% | 1025.5 hPa | 0 mm | - | - | - |
| 1777686396 | 2.22° C | 67% | 1025.4 hPa | 0 mm | - | - | - |
| 1777685292 | 2.22° C | 67% | 1025.5 hPa | 0 mm | - | - | - |
| 1777684181 | 2.22° C | 66% | 1025.5 hPa | 0 mm | - | - | - |
| 1777683041 | 2.22° C | 65% | 1025.6 hPa | 0 mm | - | - | - |
| 1777681972 | 2.78° C | 65% | 1025.8 hPa | 0 mm | - | - | - |
| 1777680906 | 2.78° C | 64% | 1025.8 hPa | 0 mm | - | - | - |
| 1777679827 | 3.33° C | 65% | 1025.9 hPa | 0 mm | - | - | - |
| 1777678696 | 3.33° C | 63% | 1025.9 hPa | 0 mm | - | - | - |
| 1777677559 | 3.33° C | 62% | 1026 hPa | 0 mm | - | - | - |
| 1777676531 | 3.89° C | 63% | 1026.1 hPa | 0 mm | - | - | - |
| 1777675453 | 3.89° C | 60% | 1026.2 hPa | 0 mm | - | - | - |
| 1777674358 | 3.89° C | 60% | 1026.2 hPa | 0 mm | - | - | - |
| 1777672032 | 5° C | 58% | 1026.3 hPa | 0 mm | - | - | - |
* Rain latest hour (hover to see other rain measurements)
** Current wind speed in m/s (hover to see current wind gust speed)